[[{"header":{"parameterUnit":"m.s-1","parameterCategory":1,"la1":30.2991,"la2":30.254,"lo1":-89.0895,"lo2":-89.0444,"dy":0.0017,"dx":0.0017,"nx":28,"ny":28,"refTime":"2024-08-23T21:00:00:Z","depth":0,"parameterNumber":2,"parameterNumberName":"U-component_of_WINDS"},"data":[0,0,0,0,0,0,0,0,0,0,0,0,0,0,0,0,0,0,0,0,0,0,0,0,0,0,0,0,0,0,0,0,0,0,0,0,0,0,0,0,0,0,0,0,0,0,0,0,0,0,0,0,0,0,0,0,0,0,-3.3028,-3.3028,0,-3.3017,-3.3017,-3.3017,-3.2934,-3.2932,-3.293,-3.2928,-3.2918,-3.292,-3.2921,0,0,0,0,0,0,0,0,0,0,0,0,0,-3.2981,-3.2982,-3.3028,-3.3028,-3.3028,-3.3017,-3.3017,-3.3017,-3.2934,-3.2932,-3.2929,-3.2927,-3.2917,-3.2919,-3.2921,0,0,0,0,0,0,0,0,0,0,0,0,0,-3.2989,-3.2982,-3.3028,-3.2985,-3.2981,-3.3017,-3.3017,-3.3017,-3.2935,-3.2932,-3.2928,-3.2926,-3.2917,-3.2919,-3.2922,-3.2998,0,0,-3.2929,-3.293,0,0,0,0,0,0,0,0,-3.2988,-3.299,-3.2992,-3.2988,-3.2984,-3.2973,-3.2996,-3.3011,-3.2935,-3.2952,-3.2928,-3.2924,-3.2939,-3.294,-3.2944,-3.2998,-3.2997,-3.2929,-3.2931,-3.2932,-3.2933,0,0,0,0,0,0,0,-3.2988,-3.299,-3.3023,-3.2992,-3.2987,-3.2968,-3.2965,-3.2999,-3.2963,-3.2951,-3.2945,-3.2944,-3.2936,-3.2942,-3.2943,-3.2997,-3.2929,-3.2932,-3.2933,-3.2934,-3.3115,-3.3118,0,0,0,0,0,0,-3.2993,-3.2991,-3.3024,-3.3023,-3.2978,-3.2971,-3.2968,-3.298,-3.2962,-3.2957,-3.2947,-3.2941,-3.2939,-3.2941,-3.2943,-3.3031,-3.2932,-3.2934,-3.2936,-3.3111,-3.3115,-3.3119,0,0,0,0,0,0,-3.2992,-3.2997,-3.3024,-3.3005,-3.3007,-3.2975,-3.2989,-3.2981,-3.2987,-3.296,-3.2953,-3.2959,-3.2937,-3.2939,-3.2985,-3.3029,-3.2935,-3.2938,-3.3107,-3.3113,-3.3117,-3.3209,0,0,0,0,0,0,-3.2991,-3.2997,-3.3024,-3.3006,-3.3009,-3.3066,-3.2991,-3.2983,-3.2991,-3.2983,-3.2969,-3.2964,-3.2935,-3.2982,-3.2988,-3.3031,-3.294,-3.3103,-3.311,-3.3116,-3.3201,-3.3216,-3.3229,0,0,0,0,0,-3.299,-3.3051,-3.3026,-3.3031,-3.3042,-3.3069,-3.307,-3.3034,-3.2995,-3.3023,-3.3006,-3.2965,-3.3025,-3.2987,-3.2993,-3.3038,-3.31,-3.3108,-3.3115,-3.3195,-3.3213,-3.3228,0,0,0,0,0,0,-3.3074,-3.3047,-3.302,-3.3077,-3.3076,-3.3055,-3.3088,-3.3054,-3.3065,-3.3056,-3.3013,-3.3011,-3.3063,-3.3056,-3.3015,-3.3112,-3.3055,-3.3064,-3.3114,-3.3131,-3.3145,-3.3144,-3.2942,0,0,0,0,0,-3.31,-3.3123,-3.3098,-3.3151,-3.3152,-3.3121,-3.3131,-3.3104,-3.3101,-3.31,-3.3087,-3.3086,-3.3105,-3.3118,-3.3134,-3.3201,-3.3197,-3.3235,-3.3249,-3.326,-3.3268,-3.3303,-3.332,-3.3143,-3.3143,-3.3143,0,0,-3.3152,-3.314,-3.3157,-3.3168,-3.3163,-3.3189,-3.3121,-3.315,-3.3169,-3.3105,-3.3147,-3.3138,-3.3135,-3.3192,-3.3216,-3.3187,-3.3316,-3.327,-3.3279,-3.328,-3.3313,-3.333,-3.3344,-3.3149,-3.3148,-3.3147,0,0,-3.326,-3.3254,-3.3296,-3.3295,-3.329,-3.3269,-3.328,-3.3265,-3.3256,-3.3298,-3.3251,-3.3274,-3.3307,-3.3307,-3.3311,-3.3423,-3.3385,-3.343,-3.35,-3.3535,-3.3549,-3.3561,-3.36,-3.3615,-3.3438,-3.3438,-3.3439,0,-3.3325,-3.336,-3.3323,-3.3356,-3.3363,-3.3307,-3.3351,-3.3351,-3.3352,-3.3359,-3.3326,-3.3368,-3.3362,-3.3418,-3.3446,-3.3452,-3.3463,-3.3429,-3.355,-3.3562,-3.3573,-3.3609,-3.3624,-3.3444,-3.3443,-3.3443,-3.3442,0,-3.3441,-3.3467,-3.3503,-3.3505,-3.3516,-3.3555,-3.3524,-3.354,-3.3514,-3.3498,-3.3542,-3.3534,-3.3547,-3.3559,-3.3534,-3.3613,-3.3595,-3.3558,-3.3499,-3.3595,-3.3629,-3.3643,-3.3451,-3.3449,-3.3448,-3.3446,0,0,-3.3598,-3.3581,-3.3595,-3.3596,-3.3588,-3.3608,-3.3646,-3.3659,-3.3673,-3.3677,-3.3707,-3.3739,-3.3704,-3.3709,-3.3684,-3.3715,-3.3804,-3.3674,-3.3673,-3.3697,-3.3891,-3.3918,-3.3935,-3.3781,-3.3783,-3.3786,-3.3891,0,-3.37,-3.3761,-3.373,-3.3796,-3.382,-3.377,-3.3802,-3.3802,-3.3789,-3.3808,-3.3794,-3.3816,-3.377,-3.3773,-3.3802,-3.3787,-3.3842,-3.378,-3.3808,-3.381,-3.3808,-3.3953,-3.3981,-3.408,-3.3904,-3.3907,-3.3908,0,-3.3827,-3.3836,-3.3904,-3.3893,-3.3902,-3.3932,-3.3943,-3.3962,-3.3962,-3.395,-3.3958,-3.3926,-3.3963,-3.3908,-3.3959,-3.3917,-3.3927,-3.3923,-3.3926,-3.3925,-3.3863,-3.3954,-3.4112,-3.4126,-3.3929,-3.3927,-3.3926,0,-3.3933,-3.3963,-3.4007,-3.401,-3.3999,-3.4021,-3.4018,-3.4015,-3.4026,-3.4036,-3.4042,-3.4058,-3.4065,-3.4078,-3.4052,-3.4014,-3.4106,-3.4049,-3.4098,-3.4098,-3.4117,-3.4115,-3.4276,-3.4128,-3.4128,-3.4127,-3.4127,0,-3.4049,-3.4092,-3.4055,-3.4082,-3.413,-3.4096,-3.4144,-3.4136,-3.4134,-3.4159,-3.4118,-3.4143,-3.4108,-3.413,-3.411,-3.4155,-3.416,-3.4151,-3.4145,-3.4154,-3.4155,-3.4158,-3.4149,-3.4131,-3.413,-3.413,-3.4129,0,-3.4173,-3.415,-3.4195,-3.4183,-3.4181,-3.4216,-3.4206,-3.4231,-3.4217,-3.425,-3.4256,-3.4233,-3.4257,-3.4233,-3.4256,-3.4242,-3.4303,-3.4288,-3.4302,-3.4297,-3.4347,-3.4342,-3.4513,-3.4534,-3.4375,-3.4376,-3.4378,0,-3.4247,-3.428,-3.4271,-3.4285,-3.4284,-3.4308,-3.4319,-3.4288,-3.4301,-3.4305,-3.433,-3.4351,-3.4365,-3.4407,-3.4393,-3.4411,-3.4394,-3.4454,-3.4396,-3.4405,-3.4394,-3.4391,-3.4394,-3.4464,-3.4466,-3.4467,-3.4469,0,-3.4382,-3.4369,-3.4386,-3.4401,-3.4415,-3.4425,-3.4431,-3.4446,-3.4414,-3.4431,-3.4455,-3.4467,-3.4491,-3.4512,-3.4527,-3.4524,-3.4492,-3.4488,-3.4499,-3.4507,-3.4514,-3.451,-3.4332,-3.4483,-3.4481,-3.448,-3.448,-3.4479,-3.4482,-3.4509,-3.4507,-3.4528,-3.453,-3.4538,-3.4561,-3.4551,-3.457,-3.4587,-3.4568,-3.4598,-3.4599,-3.4615,-3.4617,-3.4641,-3.4616,-3.4633,-3.4637,-3.4642,-3.4648,-3.4513,-3.4643,-3.4643,-3.4643,-3.4642,-3.4642,0,-3.4613,-3.461,-3.463,-3.4641,-3.4658,-3.4627,-3.4634,-3.465,-3.4677,-3.4681,-3.4697,-3.4726,-3.4747,-3.4736,-3.4755,-3.4776,-3.4762,-3.4782,-3.4778,-3.4779,-3.467,-3.4657,-3.4793,-3.4793,-3.4793,-3.4793,-3.4793,-3.4793,-3.4682,-3.4726,-3.4714,-3.4759,-3.4756,-3.4785,-3.4791,-3.4799,-3.4802,-3.4836,-3.4853,-3.4846,-3.4845,-3.4863,-3.4882,-3.4879,-3.4887,-3.4912,-3.4903,-3.4801,-3.4786,-3.4772,-3.4759,-3.4915,-3.4915,-3.5009,-3.501,-3.5011]},{"header":{"parameterUnit":"m.s-1","parameterCategory":1,"la1":30.2991,"la2":30.254,"lo1":-89.0895,"lo2":-89.0444,"dy":0.0017,"dx":0.0017,"nx":28,"ny":28,"refTime":"2024-08-23T21:00:00:Z","depth":0,"parameterNumber":3,"parameterNumberName":"V-component_of_WINDS"},"data":[0,0,0,0,0,0,0,0,0,0,0,0,0,0,0,0,0,0,0,0,0,0,0,0,0,0,0,0,0,0,0,0,0,0,0,0,0,0,0,0,0,0,0,0,0,0,0,0,0,0,0,0,0,0,0,0,0,0,3.3109,3.3109,0,3.3147,3.3148,3.3148,3.3227,3.3228,3.323,3.3231,3.3265,3.3264,3.3264,0,0,0,0,0,0,0,0,0,0,0,0,0,3.3099,3.3098,3.3109,3.3109,3.311,3.3147,3.3148,3.3148,3.3226,3.3228,3.323,3.3232,3.3265,3.3265,3.3264,0,0,0,0,0,0,0,0,0,0,0,0,0,3.3116,3.3098,3.3109,3.3153,3.3158,3.3147,3.3148,3.3148,3.3226,3.3228,3.3231,3.3233,3.3265,3.3265,3.3264,3.3211,0,0,3.3261,3.3261,0,0,0,0,0,0,0,0,3.3115,3.3117,3.3146,3.315,3.3155,3.3185,3.3157,3.3169,3.3225,3.32,3.3231,3.3234,3.3236,3.3238,3.324,3.3212,3.3214,3.3261,3.326,3.326,3.326,0,0,0,0,0,0,0,3.3114,3.3115,3.3124,3.3147,3.3152,3.317,3.3175,3.3159,3.3204,3.3202,3.3208,3.3212,3.3239,3.324,3.3241,3.3214,3.3261,3.326,3.326,3.3259,3.3147,3.3145,0,0,0,0,0,0,3.3107,3.3114,3.3123,3.3125,3.3141,3.3168,3.3174,3.3173,3.3204,3.3212,3.321,3.3216,3.3241,3.3242,3.3242,3.3183,3.326,3.3259,3.3259,3.3149,3.3146,3.3144,0,0,0,0,0,0,3.3106,3.3107,3.3121,3.3121,3.3124,3.3166,3.3164,3.3172,3.3174,3.321,3.3218,3.3203,3.3242,3.3244,3.3219,3.3185,3.3259,3.3258,3.3152,3.3148,3.3145,3.3063,0,0,0,0,0,0,3.3106,3.3106,3.3087,3.312,3.3124,3.3098,3.3162,3.3171,3.3173,3.318,3.3206,3.3213,3.3244,3.322,3.3218,3.3185,3.3257,3.3155,3.3151,3.3146,3.3069,3.3057,3.3047,0,0,0,0,0,3.3105,3.3061,3.3086,3.3087,3.3102,3.3096,3.3098,3.3137,3.317,3.3151,3.3174,3.3212,3.319,3.3216,3.3215,3.3182,3.3158,3.3152,3.3147,3.3074,3.306,3.3048,0,0,0,0,0,0,3.3021,3.3066,3.3094,3.306,3.3074,3.3109,3.3086,3.312,3.3123,3.313,3.3177,3.3182,3.315,3.3164,3.3193,3.3133,3.318,3.3174,3.3125,3.3112,3.3101,3.3098,3.3257,0,0,0,0,0,3.2999,3.2992,3.3032,3.2997,3.3003,3.3043,3.3042,3.3072,3.3087,3.3092,3.3114,3.3126,3.3122,3.3118,3.3116,3.3072,3.3079,3.3049,3.3038,3.3029,3.3022,3.3001,3.2988,3.3125,3.3125,3.3126,0,0,3.2952,3.2976,3.2969,3.2981,3.2995,3.2986,3.3047,3.3034,3.3027,3.3089,3.3068,3.3084,3.3101,3.3067,3.3052,3.3077,3.2986,3.3022,3.3014,3.3013,3.2994,3.2981,3.2969,3.3122,3.3122,3.3123,0,0,3.2863,3.288,3.2855,3.2868,3.289,3.2917,3.2911,3.2941,3.2955,3.2935,3.2982,3.2974,3.2965,3.2975,3.2979,3.2896,3.293,3.2894,3.2835,3.2814,3.2803,3.2794,3.2763,3.2752,3.2887,3.2887,3.2887,0,3.2801,3.2791,3.2836,3.2821,3.2825,3.2884,3.2857,3.2868,3.2886,3.2887,3.2915,3.2907,3.2922,3.2891,3.2871,3.2872,3.2866,3.289,3.2801,3.2792,3.2784,3.2756,3.2744,3.2883,3.2883,3.2884,3.2884,0,3.2714,3.2706,3.2682,3.2702,3.2703,3.2682,3.2724,3.2719,3.2749,3.2773,3.2752,3.2772,3.2776,3.2771,3.2799,3.2745,3.2759,3.2793,3.2841,3.2766,3.274,3.2729,3.2876,3.2878,3.2879,3.288,0,0,3.2571,3.2618,3.2608,3.2618,3.2647,3.2641,3.2622,3.2628,3.2624,3.2635,3.262,3.2613,3.2646,3.265,3.268,3.2661,3.2593,3.2698,3.2699,3.2677,3.2534,3.2508,3.2495,3.2617,3.2615,3.2614,3.2533,0,3.2487,3.246,3.2502,3.2464,3.2457,3.2514,3.2498,3.2513,3.2536,3.2532,3.2556,3.255,3.2594,3.2597,3.2581,3.2605,3.2565,3.2611,3.2602,3.2601,3.2596,3.2481,3.2453,3.2376,3.2523,3.2522,3.252,0,3.2385,3.2394,3.2357,3.239,3.2388,3.2373,3.2383,3.2379,3.2397,3.2415,3.2421,3.2457,3.2441,3.2488,3.2465,3.2496,3.2495,3.2506,3.2504,3.2504,3.2555,3.2477,3.2352,3.234,3.2505,3.2506,3.2507,0,3.2284,3.2286,3.2265,3.2272,3.2309,3.2297,3.2312,3.2333,3.2335,3.2343,3.2344,3.2349,3.2351,3.2353,3.239,3.2421,3.2362,3.2413,3.2375,3.2374,3.2359,3.236,3.2231,3.236,3.236,3.236,3.236,0,3.2185,3.216,3.222,3.2207,3.218,3.2228,3.22,3.222,3.2239,3.223,3.2279,3.2268,3.2318,3.2312,3.2341,3.2318,3.2318,3.2331,3.2339,3.2326,3.2324,3.2325,3.2331,3.2357,3.2358,3.2358,3.2359,0,3.2067,3.2107,3.2087,3.2125,3.2134,3.2113,3.2145,3.2133,3.216,3.2147,3.2147,3.2188,3.2185,3.2222,3.2225,3.2244,3.2207,3.2225,3.2202,3.2207,3.2167,3.217,3.2034,3.2019,3.2157,3.2156,3.2155,0,3.2001,3.1984,3.2021,3.2019,3.2032,3.2029,3.2031,3.2078,3.2078,3.2099,3.2084,3.2086,3.2089,3.2081,3.211,3.2113,3.213,3.2082,3.213,3.2119,3.2129,3.2129,3.2127,3.2072,3.207,3.2068,3.2067,0,3.188,3.1901,3.1904,3.1913,3.1916,3.1925,3.1937,3.1932,3.1983,3.1981,3.1979,3.1982,3.1987,3.1987,3.1996,3.201,3.2046,3.2052,3.2044,3.203,3.2018,3.2024,3.2173,3.2055,3.2056,3.2057,3.2058,3.2058,3.1786,3.1774,3.1798,3.18,3.1814,3.1825,3.1817,3.1843,3.1844,3.1852,3.188,3.1873,3.1893,3.1909,3.192,3.1915,3.1938,3.1925,3.1922,3.1918,3.1911,3.2019,3.1917,3.1917,3.1917,3.1918,3.1918,0,3.1667,3.1687,3.1688,3.1705,3.1706,3.1743,3.1759,3.1757,3.1751,3.1768,3.1771,3.1769,3.177,3.18,3.1805,3.1795,3.1812,3.1794,3.1795,3.1798,3.189,3.1897,3.1781,3.1781,3.1781,3.1781,3.1781,3.1781,3.1606,3.1587,3.1611,3.1599,3.1619,3.1614,3.162,3.163,3.1644,3.1641,3.1642,3.1663,3.1685,3.1691,3.1694,3.1702,3.1701,3.1678,3.1692,3.1778,3.1791,3.1804,3.181,3.1678,3.1677,3.16,3.1599,3.1599]}]]